TimeCDT,TemperatureF,Dew PointF,Humidity,Sea Level PressureIn,VisibilityMPH,Wind Direction,Wind SpeedMPH,Gust SpeedMPH,PrecipitationIn,Events,Conditions,WindDirDegrees,DateUTC
12:53 AM,59.0,57.0,93,29.97,10.0,Calm,Calm,-,N/A,,Mostly Cloudy,0,2013-10-20 05:53:00
1:53 AM,59.0,57.0,93,29.98,9.0,Calm,Calm,-,N/A,,Scattered Clouds,0,2013-10-20 06:53:00
2:53 AM,57.0,55.9,96,29.98,7.0,Calm,Calm,-,N/A,,Mostly Cloudy,0,2013-10-20 07:53:00
3:53 AM,57.0,55.0,93,29.98,6.0,Calm,Calm,-,N/A,,Partly Cloudy,0,2013-10-20 08:53:00
4:53 AM,55.9,54.0,93,29.98,8.0,Calm,Calm,-,N/A,,Clear,0,2013-10-20 09:53:00
5:53 AM,55.0,54.0,96,29.99,7.0,NNE,3.5,-,N/A,,Clear,30,2013-10-20 10:53:00
6:39 AM,55.4,53.6,94,30.00,6.0,NNE,5.8,-,N/A,,Scattered Clouds,20,2013-10-20 11:39:00
6:50 AM,55.4,53.6,94,30.00,5.0,North,6.9,-,N/A,,Mostly Cloudy,10,2013-10-20 11:50:00
6:53 AM,55.9,54.0,93,30.00,4.0,NNE,8.1,-,N/A,,Mostly Cloudy,20,2013-10-20 11:53:00
7:32 AM,55.4,53.6,94,30.01,4.0,NNE,4.6,-,N/A,,Scattered Clouds,20,2013-10-20 12:32:00
7:53 AM,57.9,55.0,90,30.02,6.0,North,4.6,-,N/A,,Clear,10,2013-10-20 12:53:00
8:53 AM,62.1,55.0,78,30.04,10.0,NE,6.9,-,N/A,,Clear,50,2013-10-20 13:53:00
9:53 AM,64.9,54.0,68,30.04,10.0,NE,6.9,-,N/A,,Partly Cloudy,40,2013-10-20 14:53:00
10:53 AM,68.0,54.0,61,30.04,10.0,East,4.6,-,N/A,,Clear,80,2013-10-20 15:53:00
11:53 AM,72.0,53.1,51,30.04,10.0,Variable,5.8,-,N/A,,Clear,0,2013-10-20 16:53:00
12:53 PM,73.9,53.1,48,30.01,10.0,Calm,Calm,-,N/A,,Clear,0,2013-10-20 17:53:00
1:53 PM,75.0,53.1,46,29.99,10.0,Calm,Calm,-,N/A,,Clear,0,2013-10-20 18:53:00
2:53 PM,75.0,53.1,46,29.96,10.0,Calm,Calm,-,N/A,,Clear,0,2013-10-20 19:53:00
3:53 PM,75.9,53.1,45,29.97,10.0,Calm,Calm,-,N/A,,Scattered Clouds,0,2013-10-20 20:53:00
4:53 PM,75.0,53.1,46,29.98,10.0,Calm,Calm,-,N/A,,Partly Cloudy,0,2013-10-20 21:53:00
5:53 PM,66.0,57.0,73,29.98,10.0,Calm,Calm,-,N/A,,Clear,0,2013-10-20 22:53:00
6:00 PM,32.0,32.0,100,-9999,-9999.0,North,-9999.0,-,N/A,,Unknown,0,2013-10-20 23:00:00
6:53 PM,61.0,57.0,87,29.99,10.0,Calm,Calm,-,N/A,,Partly Cloudy,0,2013-10-20 23:53:00
7:53 PM,60.1,57.0,90,30.01,10.0,Calm,Calm,-,N/A,,Clear,0,2013-10-21 00:53:00
8:53 PM,57.9,55.9,93,30.01,10.0,Calm,Calm,-,N/A,,Clear,0,2013-10-21 01:53:00
9:53 PM,57.0,55.0,93,30.02,9.0,Calm,Calm,-,N/A,,Clear,0,2013-10-21 02:53:00
10:53 PM,57.9,55.9,93,30.02,8.0,Calm,Calm,-,N/A,,Partly Cloudy,0,2013-10-21 03:53:00
11:53 PM,59.0,55.0,87,30.01,10.0,NNE,3.5,-,N/A,,Scattered Clouds,20,2013-10-21 04:53:00